Wind_Speed
23 23 22 22 22 22 21 20 19 19 19 18 18 18 18 19 18 17 16 16 16 16 15 15 14 14 13 13 13 12 12 12 12 12 12 11 10 9 9 9 9 9 8 8 8 8 8 8 8
23 24 23 23 23 23 22 21 22 21 21 20 20 21 21 21 20 19 18 18 18 18 17 17 16 15 14 14 14 14 14 13 13 13 13 13 12 11 11 10 10 10 10 9 9 9 9 9 9
24 25 25 25 24 23 22 23 23 23 23 22 23 23 22 22 22 21 21 20 20 20 19 19 18 18 17 16 16 16 15 15 15 15 15 14 14 13 13 12 12 11 11 11 11 11 10 10 10
26 26 27 26 25 24 24 24 25 25 25 25 25 25 25 24 24 23 22 22 21 21 21 21 20 20 19 18 18 18 17 17 17 17 16 15 15 15 14 14 13 13 12 12 12 12 12 12 12
28 28 28 28 26 25 25 26 26 26 26 26 27 27 27 26 26 25 24 23 23 23 23 22 22 22 21 21 20 20 19 19 19 18 18 17 17 16 16 16 15 14 14 14 13 13 13 14 14
30 30 30 29 27 27 27 27 27 27 26 26 27 28 28 28 27 27 27 26 25 25 24 24 24 24 24 23 23 22 22 21 20 20 19 19 19 18 17 17 17 16 15 15 14 15 15 15 15
30 31 30 29 29 29 29 28 28 27 27 27 28 28 29 29 28 28 28 28 28 27 26 26 26 26 26 26 25 25 24 24 23 22 21 21 21 20 20 19 19 18 17 17 16 16 16 17 17
30 31 31 30 30 29 30 30 29 29 28 28 29 29 29 30 29 30 30 30 30 29 29 28 28 28 28 27 27 27 27 26 25 24 24 23 23 22 22 21 21 20 19 19 18 18 18 19 19
30 31 30 29 30 30 30 30 29 29 29 29 30 31 31 32 32 31 31 31 31 31 30 30 30 30 30 30 29 29 28 28 27 27 26 25 25 25 24 24 23 22 22 21 21 21 20 20 20
30 31 30 29 29 30 31 31 30 30 30 31 32 33 32 33 33 33 31 32 33 32 32 32 32 31 32 31 31 31 31 31 30 29 29 28 28 27 26 26 25 25 24 24 23 23 22 22 22
30 30 29 29 30 30 31 32 31 31 31 32 33 34 34 34 35 35 33 32 33 34 34 34 34 33 34 33 33 33 33 33 32 31 31 31 30 30 29 28 27 27 27 26 25 24 24 24 24
29 29 30 30 31 31 31 32 33 32 31 32 33 34 35 35 36 36 36 35 34 35 36 36 36 36 36 35 35 35 35 34 34 34 33 33 32 32 31 31 29 29 29 28 27 27 26 26 26
29 29 29 30 31 31 32 33 33 32 32 32 33 33 35 36 36 36 37 36 35 36 37 38 38 37 37 38 37 37 36 36 36 35 35 34 34 34 33 33 32 31 31 30 30 29 28 28 28
28 29 29 30 30 31 32 32 32 31 33 34 34 34 34 36 37 37 37 37 37 37 39 39 39 39 39 39 39 39 38 38 37 37 37 37 35 35 35 35 34 33 33 32 32 32 31 30 30
28 29 29 30 30 31 32 32 32 31 32 33 34 35 35 35 36 37 37 38 38 38 39 40 41 41 40 40 40 41 40 40 39 38 38 38 38 37 37 36 36 35 35 34 34 34 33 32 32
28 28 29 29 30 31 32 31 31 32 32 32 33 35 35 36 37 37 38 39 40 40 40 40 42 43 42 41 41 42 42 41 41 40 40 40 39 39 39 38 38 38 37 37 36 36 36 35 34
28 28 29 29 30 31 32 31 31 32 32 32 33 35 36 38 38 38 39 40 41 42 41 42 43 44 44 43 43 43 43 43 43 43 43 42 41 40 41 40 39 40 39 39 39 38 38 37 37
27 28 28 29 30 30 31 31 31 33 34 33 34 35 36 37 39 39 39 40 41 42 43 43 44 44 44 44 44 44 44 45 45 45 44 44 43 43 43 42 41 41 41 41 41 40 40 39 39
27 27 28 29 30 30 31 31 31 32 33 33 34 35 36 37 37 38 39 40 41 42 42 43 44 45 46 46 47 47 46 46 46 46 45 46 46 45 45 44 44 43 43 43 43 42 42 42 42
28 28 28 28 29 31 32 31 31 32 33 33 33 34 36 36 36 37 39 41 41 42 44 44 45 45 46 47 48 48 48 48 48 49 48 48 48 48 48 46 46 44 44 44 44 44 44 44 43
28 28 27 27 28 31 32 31 31 32 33 33 34 34 35 36 36 37 39 41 42 43 44 45 45 45 46 46 46 47 48 47 47 49 49 50 50 49 49 48 47 46 45 45 45 45 45 44 44
27 27 28 28 29 30 30 31 29 31 32 32 33 34 35 36 37 38 39 41 43 43 44 44 45 46 46 47 47 47 47 46 46 47 48 48 49 49 48 48 48 47 46 46 45 45 46 46 46
27 27 28 29 29 30 30 32 29 29 30 31 32 33 34 36 38 39 40 41 42 43 43 44 44 45 45 46 47 47 46 46 46 47 47 48 48 48 48 48 48 48 47 47 46 46 47 48 47
26 27 28 29 29 30 29 31 30 29 29 31 32 33 34 35 37 38 38 39 39 40 41 41 43 43 43 44 45 45 44 44 44 45 46 46 46 47 47 47 47 48 47 47 48 48 48 48 49
26 27 28 29 29 28 28 30 31 29 29 29 30 32 33 34 34 34 35 35 36 37 38 39 40 41 41 42 43 43 42 43 43 42 43 44 44 45 46 46 47 47 47 47 48 49 49 49 50
25 26 27 28 29 28 28 29 29 28 28 28 29 30 30 31 32 33 33 34 35 36 37 38 39 39 40 41 41 41 41 42 43 42 42 43 43 43 44 45 46 46 47 48 48 48 49 50 50
25 26 27 28 29 29 28 28 28 28 28 27 28 28 29 29 30 31 32 34 34 35 36 38 39 40 40 41 40 40 40 41 41 41 42 42 41 41 42 44 45 46 47 47 48 48 48 49 50
25 25 27 28 29 29 29 27 27 28 28 28 28 29 29 29 29 29 30 32 33 34 35 36 37 39 40 41 41 41 42 42 41 41 41 41 41 41 42 44 44 45 46 46 47 48 48 48 49
25 25 27 28 28 29 29 26 27 28 29 29 28 29 29 29 29 29 29 30 32 33 34 35 37 39 40 40 41 43 43 43 43 43 42 42 42 43 43 44 45 46 46 47 47 48 49 49 50
26 26 27 27 28 29 30 28 28 28 28 28 28 28 29 30 29 30 30 31 32 33 35 36 37 39 40 41 42 43 44 44 44 44 44 44 43 43 44 44 45 46 47 47 48 49 49 49 50
Wind_Direction
239 239 240 242 243 243 245 246 246 247 248 250 249 248 247 247 248 250 250 246 245 247 247 245 245 245 246 248 250 252 254 257 260 264 265 268 268 267 269 270 273 278 281 283 283 286 287 287 289
239 240 240 242 244 245 246 247 248 249 251 251 251 250 249 248 248 248 249 248 246 248 248 247 245 245 247 248 250 252 253 255 258 262 264 264 263 266 266 269 271 274 277 280 282 284 285 287 288
241 241 241 242 244 246 247 248 250 253 252 252 253 251 250 248 248 246 246 247 247 247 248 248 246 245 246 247 249 251 252 255 257 259 262 262 262 264 265 267 269 273 277 279 280 283 282 282 284
244 243 244 243 244 247 249 250 251 252 253 252 253 252 250 248 248 247 245 246 246 246 247 248 246 246 246 247 248 250 251 254 256 257 258 259 261 262 263 265 268 271 275 278 280 282 281 280 281
245 244 245 245 246 248 250 253 253 252 252 252 253 253 251 249 248 247 245 245 245 245 246 247 246 246 247 248 249 250 251 253 255 256 257 258 259 259 260 262 266 270 274 276 278 279 280 280 281
246 246 247 248 248 249 250 252 254 255 254 252 252 252 251 249 248 247 246 244 244 244 245 247 247 247 248 249 250 251 252 254 255 256 257 257 259 260 261 261 265 269 273 275 276 277 280 280 281
246 247 248 249 249 249 251 253 255 257 256 253 252 252 251 250 249 249 247 245 246 246 246 247 248 248 249 250 251 253 253 254 255 256 257 257 258 259 261 261 264 267 270 273 275 277 280 282 283
248 248 249 249 250 251 253 254 255 256 255 254 252 252 252 250 250 250 250 248 247 247 247 248 249 249 250 250 252 253 253 254 255 257 257 258 259 260 261 262 262 265 268 270 273 277 280 282 283
249 249 250 251 251 252 254 255 255 255 254 252 251 252 252 250 250 250 250 249 248 249 248 248 249 249 250 250 252 253 253 253 255 256 258 259 259 260 260 261 262 264 266 268 271 274 278 279 282
251 251 251 252 251 251 252 254 254 254 253 252 252 252 251 250 249 249 250 250 249 249 248 248 248 249 250 251 252 252 253 253 255 256 257 258 259 259 260 262 262 263 265 267 269 272 275 277 280
252 253 253 253 252 252 252 253 254 254 253 252 253 253 252 251 250 250 249 250 249 249 248 248 249 250 251 251 252 252 253 254 255 256 256 257 258 259 260 262 263 263 264 266 268 270 273 275 277
254 254 254 254 253 252 252 253 254 255 255 253 253 253 253 253 252 252 252 251 249 248 249 249 249 250 250 251 252 252 253 254 255 255 256 257 258 258 258 261 262 263 264 265 266 268 271 273 276
254 253 254 254 254 254 254 253 254 256 255 253 253 253 253 254 253 253 254 254 252 251 250 249 249 250 251 252 252 252 253 254 255 256 257 257 257 257 258 259 261 263 264 264 265 268 270 272 274
254 253 254 255 256 256 257 256 255 256 257 255 254 255 254 254 253 253 254 254 253 252 250 249 249 250 251 252 252 253 253 254 255 256 257 258 258 258 258 258 260 262 263 263 264 267 269 271 272
254 255 256 257 257 258 258 257 257 258 258 258 256 256 255 254 255 253 253 254 254 252 250 250 249 249 250 251 252 253 254 254 254 255 257 258 259 259 259 259 259 260 261 263 264 265 267 270 270
255 256 257 258 258 259 259 260 260 259 260 260 258 257 257 256 256 255 254 254 254 253 251 249 249 249 250 251 252 253 253 254 254 255 257 258 259 259 259 260 260 260 261 262 263 265 267 268 268
257 258 258 258 260 261 261 261 260 260 261 261 260 259 258 258 257 256 255 255 255 254 252 250 250 249 250 251 252 253 254 255 254 255 257 258 258 258 258 259 260 260 261 262 263 265 267 267 267
260 262 261 261 261 263 264 262 259 260 262 262 262 261 260 260 260 258 257 257 256 255 253 251 250 250 250 251 252 254 255 256 255 256 257 258 259 259 259 258 259 261 261 261 262 263 264 264 265
262 263 264 263 263 265 268 264 260 261 263 263 264 263 262 263 262 260 259 258 258 256 255 253 252 251 251 251 253 253 255 256 256 257 258 259 259 259 259 259 259 260 261 261 262 263 263 263 263
262 265 265 265 266 266 267 264 262 262 264 266 267 266 264 264 262 261 260 259 259 258 255 254 253 252 252 253 254 254 254 256 257 259 259 259 258 257 258 260 260 260 260 261 262 263 263 262 262
263 265 267 267 267 268 268 266 266 266 265 267 269 269 266 265 263 263 260 259 259 259 258 256 253 253 252 253 254 254 255 257 258 260 260 259 259 259 258 259 260 259 260 261 262 262 261 262 262
264 266 267 267 269 270 271 270 267 268 268 269 271 271 269 267 264 263 262 261 259 258 258 257 255 253 253 254 255 255 256 257 259 260 259 259 259 258 258 259 260 259 260 261 262 262 261 261 262
266 267 268 269 271 271 272 273 269 271 271 271 273 273 271 269 265 263 262 261 260 257 256 258 257 255 254 255 256 255 256 258 259 259 260 259 259 258 259 259 260 260 260 262 263 263 262 262 262
268 268 268 270 272 272 272 273 272 273 277 276 274 274 273 271 268 265 264 262 259 257 258 258 257 256 256 256 256 256 256 257 258 258 258 260 259 258 259 260 261 261 261 262 263 264 263 263 262
268 270 271 271 272 274 275 275 275 277 280 279 276 275 274 271 269 267 265 261 259 259 259 258 256 255 256 257 257 256 256 257 259 259 259 260 260 259 259 260 261 261 261 263 264 264 263 263 263
269 271 273 275 276 277 276 276 278 280 281 279 277 274 273 272 271 269 266 262 261 260 259 258 257 257 257 258 257 256 257 258 259 260 260 260 260 259 260 261 262 262 262 264 265 264 264 263 263
269 270 273 275 277 279 276 277 278 278 279 279 276 273 272 273 273 270 268 265 265 264 261 259 259 257 257 258 257 256 257 258 259 261 261 261 259 260 261 262 262 263 263 265 266 265 265 264 264
269 271 274 276 279 280 279 281 282 280 279 279 279 275 273 274 273 272 270 268 267 267 265 263 262 258 257 256 256 256 257 258 259 260 260 260 260 261 263 264 264 265 266 266 266 265 265 264 264
267 269 272 275 277 280 282 283 284 282 279 280 279 277 275 274 274 273 272 272 270 268 267 265 265 262 259 259 258 258 258 258 259 259 260 261 262 263 264 265 265 265 267 268 267 265 264 265 265
266 268 271 274 277 279 282 284 284 283 283 282 282 280 278 275 275 276 276 275 275 272 269 268 266 264 261 261 260 260 259 259 259 260 262 263 263 263 264 266 266 266 268 268 267 265 265 265 265
Height
5842 5843 5845 5847 5848 5848 5848 5850 5851 5852 5853 5854 5854 5854 5855 5857 5858 5861 5860 5860 5861 5862 5862 5863 5864 5864 5865 5866 5866 5867 5867 5868 5868 5868 5869 5869 5869 5869 5869 5868 5868 5868 5868 5867 5867 5867 5866 5865 5865
5837 5839 5841 5842 5842 5843 5845 5846 5847 5848 5849 5850 5850 5850 5851 5852 5853 5855 5855 5856 5857 5858 5859 5860 5861 5862 5863 5863 5864 5865 5865 5866 5866 5866 5867 5867 5867 5867 5867 5867 5866 5866 5866 5866 5865 5865 5864 5864 5863
5832 5834 5836 5836 5837 5839 5841 5842 5843 5844 5844 5845 5845 5846 5847 5848 5848 5850 5851 5852 5854 5855 5856 5857 5858 5859 5860 5861 5861 5862 5863 5863 5864 5864 5864 5864 5865 5865 5865 5865 5865 5864 5864 5864 5863 5863 5862 5862 5861
5827 5829 5830 5832 5833 5835 5836 5837 5837 5838 5839 5839 5840 5840 5841 5843 5844 5845 5846 5847 5849 5851 5852 5853 5855 5856 5857 5857 5858 5859 5860 5860 5861 5861 5861 5862 5862 5862 5862 5862 5862 5862 5862 5861 5861 5861 5860 5859 5859
5822 5823 5824 5826 5828 5830 5830 5831 5831 5832 5833 5833 5834 5835 5836 5837 5838 5840 5841 5843 5844 5846 5847 5849 5850 5852 5853 5854 5855 5856 5856 5857 5857 5858 5858 5859 5859 5859 5859 5859 5859 5859 5859 5859 5858 5858 5857 5857 5856
5816 5817 5819 5820 5823 5824 5824 5825 5825 5826 5827 5828 5828 5828 5829 5831 5832 5834 5835 5837 5839 5841 5842 5844 5846 5847 5848 5849 5851 5852 5852 5853 5854 5854 5855 5855 5855 5856 5856 5856 5856 5856 5856 5856 5855 5855 5854 5853 5853
5810 5811 5812 5814 5816 5818 5818 5819 5819 5820 5821 5822 5822 5822 5823 5825 5827 5828 5829 5832 5834 5836 5837 5839 5841 5842 5843 5845 5846 5847 5848 5849 5849 5850 5851 5851 5851 5852 5852 5852 5853 5853 5853 5852 5852 5851 5851 5850 5849
5803 5804 5805 5808 5810 5811 5812 5812 5813 5814 5814 5815 5815 5816 5817 5819 5821 5822 5823 5825 5828 5830 5832 5834 5835 5837 5838 5839 5841 5842 5843 5844 5845 5845 5846 5847 5847 5847 5848 5848 5848 5849 5849 5848 5848 5848 5847 5846 5846
5796 5798 5799 5801 5803 5804 5805 5805 5806 5807 5808 5808 5809 5810 5811 5812 5814 5816 5817 5819 5821 5824 5826 5828 5829 5831 5832 5834 5835 5836 5837 5838 5839 5840 5841 5841 5842 5843 5843 5843 5844 5844 5844 5844 5844 5843 5843 5842 5841
5788 5790 5793 5795 5796 5797 5797 5798 5799 5800 5801 5801 5801 5802 5804 5805 5807 5809 5810 5812 5814 5816 5819 5821 5823 5824 5826 5827 5829 5830 5831 5832 5833 5834 5835 5836 5837 5837 5838 5838 5838 5839 5839 5839 5839 5838 5838 5837 5836
5781 5784 5786 5787 5788 5789 5790 5790 5791 5792 5793 5794 5794 5795 5796 5797 5799 5801 5803 5806 5807 5809 5811 5813 5815 5817 5819 5821 5822 5823 5824 5826 5827 5828 5829 5829 5830 5831 5832 5832 5833 5833 5833 5833 5833 5833 5833 5832 5831
5775 5776 5778 5779 5780 5781 5782 5783 5783 5785 5786 5786 5786 5787 5788 5790 5792 5794 5796 5798 5800 5802 5803 5805 5807 5809 5811 5813 5814 5816 5817 5818 5820 5821 5822 5822 5823 5824 5825 5826 5826 5827 5827 5827 5827 5827 5827 5826 5825
5768 5769 5770 5771 5772 5773 5774 5775 5776 5777 5777 5777 5778 5779 5780 5781 5783 5786 5788 5790 5792 5794 5796 5797 5799 5801 5803 5805 5806 5808 5809 5810 5812 5813 5814 5815 5816 5817 5818 5819 5819 5820 5820 5820 5820 5820 5820 5819 5819
5761 5761 5762 5763 5764 5765 5766 5767 5768 5770 5769 5769 5770 5771 5772 5774 5775 5777 5779 5781 5783 5785 5787 5789 5791 5792 5794 5796 5798 5799 5800 5802 5803 5804 5805 5806 5807 5808 5810 5811 5811 5812 5813 5813 5813 5813 5813 5812 5811
5753 5755 5755 5756 5756 5757 5758 5759 5761 5761 5760 5761 5762 5763 5764 5765 5766 5769 5771 5772 5773 5776 5777 5779 5781 5783 5785 5787 5789 5790 5791 5793 5794 5795 5797 5798 5799 5800 5801 5802 5803 5804 5804 5805 5805 5805 5805 5805 5804
5746 5747 5748 5749 5749 5749 5751 5752 5753 5751 5752 5753 5753 5754 5755 5757 5758 5760 5761 5762 5763 5765 5767 5769 5771 5774 5776 5778 5779 5781 5782 5784 5785 5786 5787 5788 5790 5791 5792 5793 5794 5795 5796 5796 5797 5797 5797 5796 5796
5739 5740 5741 5742 5741 5741 5741 5744 5744 5742 5743 5745 5745 5745 5746 5747 5749 5750 5751 5752 5753 5755 5756 5759 5761 5764 5766 5768 5769 5771 5773 5774 5775 5777 5777 5778 5780 5781 5782 5783 5785 5785 5786 5787 5788 5788 5788 5788 5788
5734 5734 5734 5734 5733 5733 5733 5734 5735 5734 5735 5736 5736 5736 5736 5737 5738 5739 5741 5742 5743 5744 5746 5748 5751 5753 5756 5758 5759 5761 5762 5764 5765 5766 5767 5768 5769 5771 5772 5773 5774 5775 5776 5777 5778 5778 5778 5778 5779
5726 5727 5727 5726 5725 5725 5725 5725 5726 5726 5726 5727 5727 5727 5728 5728 5728 5728 5730 5731 5732 5733 5735 5737 5740 5742 5745 5747 5748 5750 5752 5753 5755 5755 5756 5757 5758 5759 5760 5762 5764 5765 5766 5767 5767 5768 5768 5769 5769
5719 5719 5720 5719 5718 5717 5717 5717 5718 5718 5718 5718 5718 5718 5718 5718 5718 5719 5720 5721 5722 5723 5724 5726 5729 5731 5733 5735 5736 5738 5740 5741 5743 5744 5744 5745 5746 5747 5749 5750 5752 5753 5754 5755 5757 5757 5758 5758 5759
5712 5713 5713 5712 5710 5709 5709 5710 5711 5710 5709 5709 5709 5708 5708 5708 5708 5709 5709 5710 5711 5712 5714 5715 5718 5720 5721 5723 5724 5726 5728 5729 5730 5731 5732 5733 5734 5735 5737 5739 5740 5742 5743 5744 5745 5746 5747 5747 5748
5706 5706 5705 5704 5703 5703 5702 5701 5703 5702 5701 5700 5700 5699 5698 5698 5698 5698 5698 5699 5700 5701 5702 5703 5706 5708 5710 5711 5712 5714 5716 5718 5719 5720 5721 5721 5722 5723 5724 5726 5728 5730 5731 5732 5733 5734 5735 5736 5737
5699 5698 5698 5697 5695 5695 5695 5693 5696 5694 5693 5692 5691 5689 5688 5687 5687 5687 5687 5688 5689 5690 5690 5692 5694 5696 5698 5699 5701 5702 5704 5705 5707 5707 5708 5709 5710 5711 5712 5714 5716 5717 5719 5720 5721 5722 5723 5724 5725
5692 5691 5690 5689 5688 5688 5688 5686 5686 5687 5686 5684 5682 5680 5678 5677 5676 5676 5676 5677 5678 5679 5680 5682 5683 5685 5686 5688 5689 5690 5692 5693 5695 5695 5696 5697 5698 5700 5701 5702 5704 5705 5707 5708 5709 5710 5711 5712 5713
5685 5685 5683 5681 5680 5681 5681 5678 5679 5679 5677 5675 5673 5671 5669 5667 5666 5666 5666 5667 5668 5669 5670 5671 5673 5674 5675 5676 5678 5679 5680 5682 5683 5684 5685 5686 5686 5688 5690 5691 5692 5694 5695 5696 5697 5698 5699 5699 5700
5678 5678 5677 5675 5674 5674 5672 5670 5672 5671 5669 5666 5664 5662 5661 5659 5658 5657 5657 5658 5659 5659 5660 5661 5662 5663 5664 5666 5667 5668 5669 5670 5672 5673 5674 5675 5676 5677 5678 5679 5680 5682 5683 5683 5684 5685 5686 5687 5688
5671 5670 5670 5668 5666 5665 5664 5664 5664 5662 5660 5658 5657 5655 5653 5652 5651 5649 5649 5649 5649 5649 5649 5650 5651 5652 5653 5654 5656 5657 5658 5660 5661 5662 5663 5663 5665 5666 5668 5668 5669 5669 5670 5671 5671 5672 5673 5674 5675
5664 5663 5662 5660 5658 5657 5657 5657 5656 5655 5653 5651 5649 5648 5646 5645 5643 5642 5641 5640 5640 5639 5639 5638 5638 5640 5641 5643 5645 5646 5647 5648 5649 5650 5651 5652 5654 5655 5656 5657 5657 5658 5658 5659 5659 5660 5661 5661 5662
5657 5657 5655 5653 5652 5650 5648 5652 5649 5647 5644 5643 5642 5640 5638 5637 5635 5634 5633 5632 5631 5630 5629 5628 5628 5628 5630 5631 5632 5634 5635 5636 5637 5639 5640 5641 5642 5643 5644 5645 5645 5646 5646 5646 5646 5647 5647 5648 5649
5649 5648 5648 5647 5645 5643 5641 5645 5641 5639 5637 5635 5634 5632 5630 5629 5627 5626 5624 5623 5622 5620 5619 5618 5617 5617 5618 5619 5620 5622 5623 5624 5625 5626 5628 5629 5630 5631 5632 5633 5633 5634 5634 5633 5633 5634 5634 5635 5635